Location: Hardisty
(52.6744°N, 111.3058°W)
Time: 05:09:44
(UTC+00:00)

BlueWalker 3 - Visible Passes

Search period start: 29 May 2023 00:00
Search period end: 08 June 2023 00:00
Orbit: 495 x 512 km, 53.2° (Epoch: 28 May)

Date Brightness Start Highest point End Pass type
(mag) Time Alt. Az. Time Alt. Az. Time Alt. Az.
29 May 1.9 05:41:10 10° SW 05:44:57 57° SSE 05:48:46 10° ENE visible
29 May 2.0 07:19:34 10° W 07:23:27 82° N 07:27:22 10° E visible
29 May 1.8 08:58:09 10° WNW 09:02:02 73° SSW 09:05:56 10° ESE visible
30 May 1.9 05:20:49 10° SW 05:24:37 58° SSE 05:28:26 10° ENE visible
30 May 2.0 06:59:14 10° W 07:03:07 82° N 07:07:02 10° E visible
30 May 1.8 08:37:49 10° WNW 08:41:42 72° SSW 08:45:36 10° ESE visible
30 May 3.0 10:16:39 10° W 10:19:50 24° SW 10:23:03 10° SSE visible
31 May 1.9 05:00:29 10° WSW 05:04:16 59° SSE 05:08:06 10° ENE visible
31 May 2.0 06:38:54 10° W 06:42:47 81° N 06:46:42 10° E visible
31 May 1.8 08:17:28 10° WNW 08:21:21 72° SSW 08:25:15 10° ESE visible
31 May 3.0 09:56:19 10° W 09:59:29 24° SW 10:02:39 10° SSE visible
01 Jun 1.9 04:40:07 10° WSW 04:43:54 60° SSE 04:47:45 10° ENE visible
01 Jun 2.0 06:18:33 10° W 06:22:26 81° N 06:26:21 10° E visible
01 Jun 1.8 07:57:08 10° WNW 08:01:00 71° SSW 08:04:53 10° ESE visible
01 Jun 3.1 09:35:59 10° W 09:39:08 23° SW 09:42:16 10° SSE visible
02 Jun 2.0 05:58:12 10° W 06:02:05 81° N 06:05:59 10° E visible
02 Jun 1.8 07:36:47 10° WNW 07:40:39 70° SSW 07:44:31 10° ESE visible
02 Jun 3.1 09:15:39 10° W 09:18:45 23° SW 09:21:52 10° SSE visible
03 Jun 2.0 05:37:50 10° W 05:41:43 81° N 05:45:37 10° E visible
03 Jun 1.8 07:16:26 10° WNW 07:20:17 69° SSW 07:24:10 10° ESE visible
03 Jun 3.1 08:55:18 10° W 08:58:23 22° SW 08:59:41 19° S visible
04 Jun 2.0 05:17:28 10° W 05:21:21 81° N 05:25:15 10° E visible
04 Jun 1.8 06:56:04 10° WNW 06:59:55 68° SSW 07:03:42 11° ESE visible
04 Jun 3.2 08:34:57 10° W 08:38:00 22° SW 08:38:18 22° SSW visible
05 Jun 2.0 04:57:07 10° W 05:00:59 81° N 05:04:53 10° E visible
05 Jun 1.9 06:35:41 10° WNW 06:39:32 67° SSW 06:42:54 13° ESE visible
05 Jun 3.3 08:14:36 10° W 08:17:32 21° SW 08:17:32 21° SW visible
06 Jun 2.1 04:36:44 10° W 04:40:36 81° N 04:44:29 10° E visible
06 Jun 1.9 06:15:18 10° WNW 06:19:09 66° SSW 06:22:25 14° ESE visible
06 Jun 3.3 07:54:15 10° W 07:57:04 21° SW 07:57:04 21° SW visible
07 Jun 1.9 05:54:55 10° WNW 05:58:46 65° SSW 06:02:06 13° ESE visible
07 Jun 3.4 07:33:53 10° W 07:36:45 21° SW 07:36:45 21° SW visible
